Погода в Ишлеях

Россия / Чувашская Республика     56°01′24″N   47°03′03″E
темп.,
°C
ветер,
м/с
пор.,
м/с
влажн.,
%
обл.,
%
осадки,
мм/ч
давл.,
гПа
погр.,
м
28 февраля, вс
вс2800:00−19ссз599882 0.0 1008176
03:00−20ссз599881 0.0 1010177
06:00−22ссз479982 0.0 1010128
09:00−19ссз589786 0.0 1011214
12:00−15ссз469595 0.0 1012320
15:00−12ссз589297 0.1 1013509
18:00−15ссз3497100 0.0 101561
21:00−17ссз339899 0.1 101746
1 марта, пн
пн100:00−18ссз3310095 0.0 101926
03:00−19сз2310093 0.1 102022
06:00−20ссз2310079 0.0 102120
09:00−17зсз129670 0.0 102283
12:00−13з349456 0.0 1021260
15:00−11зюз479478 0.0 1021271
18:00−11юз51095100 0.0 1018241
21:00−8юз61394100 0.1 1015378
2 марта, вт
вт200:00−6юз71495100 0.7 1010467
03:00−3юз81595100 2.4 1006586
06:00−1зюз71397100 1.6 1002537
09:000з71198100 3.4 1000668
12:000зсз61099100 0.4 999675
15:000зсз61094100 0.7 999703
18:00−1зсз51097100 0.6 1000619
21:00−2сз6129698 1.1 1001582
3 марта, ср
ср300:00−4сз5109594 0.3 1001348
03:00−5зсз5109593 0.4 1003351
06:00−5сз6119587 0.3 1003450
09:00−6сз7119393 0.4 1005671
12:00−5сз71090100 0.2 1006879
15:00−5ссз71189100 0.4 1008982
18:00−7сз51189100 0.1 1009305
21:00−9зсз4109550 0.1 1011205
4 марта, чт
чт400:00−11з499734 0.0 1011151
03:00−12зюз479858 0.1 1010119
06:00−10юз6119588 0.0 1007259
09:00−6юз9159494 0.2 1003516
12:00−2зюз91693100 0.9 999961
15:00−1зюз111892100 1.3 9971226
18:00−1з101794100 0.4 9961128
21:00−1зюз91688100 0.6 9971049